| time (UTC) | temp F | wind direction | speed knots | gust knots | rain 1hr in | rain 24hr in | rain mn in | humidity % | barometer mb |
| 20260502232136 | 45 | 0.0 | 0.0 | 0.00 | 0.00 | 0.00 | 61 | 931.5 | |
| 20260502231636 | 45 | 0.0 | 0.0 | 0.00 | 0.00 | 0.00 | 61 | 931.5 | |
| 20260502231136 | 45 | 0.0 | 0.0 | 0.00 | 0.00 | 0.00 | 61 | 931.5 | |
| 20260502230636 | 45 | 0.0 | 0.0 | 0.00 | 0.00 | 0.00 | 60 | 931.6 | |
| 20260502230136 | 45 | 0.0 | 0.0 | 0.00 | 0.00 | 0.00 | 60 | 931.5 | |
| 20260502225636 | 45 | 0.0 | 0.0 | 0.00 | 0.00 | 0.00 | 60 | 931.6 | |
| 20260502225136 | 46 | 0.0 | 0.0 | 0.00 | 0.00 | 0.00 | 59 | 931.6 | |
| 20260502224636 | 46 | 0.0 | 0.0 | 0.00 | 0.00 | 0.00 | 60 | 931.6 | |
| 20260502224136 | 46 | 0.0 | 0.0 | 0.00 | 0.00 | 0.00 | 60 | 931.6 | |
| 20260502223636 | 46 | 0.0 | 0.0 | 0.00 | 0.00 | 0.00 | 60 | 931.6 | |
| 20260502223136 | 46 | 0.0 | 0.0 | 0.00 | 0.00 | 0.00 | 59 | 931.7 | |
| 20260502222636 | 46 | 0.0 | 0.0 | 0.00 | 0.00 | 0.00 | 58 | 931.7 | |
| 20260502222136 | 46 | 0.0 | 0.0 | 0.00 | 0.00 | 0.00 | 58 | 931.6 | |
| 20260502221636 | 47 | 0.0 | 0.0 | 0.00 | 0.00 | 0.00 | 58 | 931.7 | |
| 20260502221136 | 47 | 0.0 | 0.0 | 0.00 | 0.00 | 0.00 | 58 | 931.7 | |
| 20260502220636 | 47 | 0.0 | 0.0 | 0.00 | 0.00 | 0.00 | 57 | 931.6 | |
| 20260502220136 | 48 | 0.0 | 0.0 | 0.00 | 0.00 | 0.00 | 57 | 931.6 | |
| 20260502215636 | 47 | 0.0 | 0.0 | 0.00 | 0.00 | 0.00 | 57 | 931.6 | |
| 20260502215136 | 48 | 0.0 | 0.0 | 0.00 | 0.00 | 0.00 | 56 | 931.6 | |
| 20260502214636 | 48 | 0.0 | 0.0 | 0.00 | 0.00 | 0.00 | 56 | 931.6 | |
| 20260502214136 | 48 | 0.0 | 0.0 | 0.00 | 0.00 | 0.00 | 56 | 931.5 | |
| 20260502213636 | 48 | 0.0 | 0.0 | 0.00 | 0.00 | 0.00 | 56 | 931.5 | |
| 20260502213136 | 48 | 0.0 | 0.0 | 0.00 | 0.00 | 0.00 | 56 | 931.5 | |
| 20260502212636 | 48 | 0.0 | 0.0 | 0.00 | 0.00 | 0.00 | 56 | 931.5 | |
| 20260502212136 | 48 | 0.0 | 0.0 | 0.00 | 0.00 | 0.00 | 55 | 931.5 | |
| 20260502211636 | 50 | 0.0 | 0.0 | 0.00 | 0.00 | 0.00 | 54 | 931.5 | |
| 20260502211136 | 49 | 0.0 | 0.0 | 0.00 | 0.00 | 0.00 | 54 | 931.5 | |
| 20260502210636 | 50 | 0.0 | 0.0 | 0.00 | 0.00 | 0.00 | 53 | 931.5 | |
| 20260502210136 | 50 | 0.0 | 0.0 | 0.00 | 0.00 | 0.00 | 52 | 931.4 | |
| 20260502205636 | 51 | 0.0 | 0.0 | 0.00 | 0.00 | 0.00 | 51 | 931.5 | |
| 20260502205009 | 51 | 0.0 | 0.0 | 0.00 | 0.00 | 0.00 | 51 | 931.5 | |
| 20260502204509 | 51 | 0.0 | 0.0 | 0.00 | 0.00 | 0.00 | 51 | 931.5 | |
| 20260502204009 | 51 | 0.0 | 0.0 | 0.00 | 0.00 | 0.00 | 52 | 931.5 | |
| 20260502203509 | 51 | 0.0 | 0.0 | 0.00 | 0.00 | 0.00 | 51 | 931.5 | |
| 20260502203009 | 52 | 0.0 | 0.0 | 0.00 | 0.00 | 0.00 | 50 | 931.5 | |
| 20260502202509 | 52 | 0.0 | 0.0 | 0.00 | 0.00 | 0.00 | 50 | 931.5 | |
| 20260502202009 | 52 | 0.0 | 0.0 | 0.00 | 0.00 | 0.00 | 50 | 931.6 | |
| 20260502201509 | 52 | 0.0 | 0.0 | 0.00 | 0.00 | 0.00 | 49 | 931.6 | |
| 20260502201009 | 53 | 0.0 | 0.0 | 0.00 | 0.00 | 0.00 | 49 | 931.5 | |
| 20260502200509 | 53 | 0.0 | 0.0 | 0.00 | 0.00 | 0.00 | 49 | 931.5 | |
| 20260502200009 | 53 | 0.0 | 0.0 | 0.00 | 0.00 | 0.00 | 49 | 931.5 | |
| 20260502195509 | 53 | 0.0 | 0.0 | 0.00 | 0.00 | 0.00 | 50 | 931.6 | |
| 20260502195009 | 52 | 0.0 | 0.0 | 0.00 | 0.00 | 0.00 | 51 | 931.5 | |
| 20260502194509 | 53 | 0.0 | 0.0 | 0.00 | 0.00 | 0.00 | 48 | 931.4 | |
| 20260502194009 | 55 | 0.0 | 0.0 | 0.00 | 0.00 | 0.00 | 46 | 931.3 | |
| 20260502193509 | 54 | 0.0 | 0.0 | 0.00 | 0.00 | 0.00 | 46 | 931.3 | |
| 20260502193009 | 54 | 0.0 | 0.0 | 0.00 | 0.00 | 0.00 | 47 | 931.3 | |
| 20260502192509 | 55 | 0.0 | 0.0 | 0.00 | 0.00 | 0.00 | 46 | 931.2 | |
| 20260502192009 | 56 | 0.0 | 0.0 | 0.00 | 0.00 | 0.00 | 44 | 931.2 | |
| 20260502191509 | 56 | 0.0 | 0.0 | 0.00 | 0.00 | 0.00 | 44 | 931.1 | |
| 20260502191009 | 56 | 0.0 | 0.0 | 0.00 | 0.00 | 0.00 | 44 | 931.1 | |
| 20260502190509 | 56 | 0.0 | 0.0 | 0.00 | 0.00 | 0.00 | 44 | 931.1 | |
| 20260502190009 | 56 | 0.0 | 0.0 | 0.00 | 0.00 | 0.00 | 44 | 931.0 | |
| 20260502185509 | 57 | 0.0 | 0.0 | 0.00 | 0.00 | 0.00 | 43 | 930.9 | |
| 20260502185009 | 57 | 0.0 | 0.0 | 0.00 | 0.00 | 0.00 | 43 | 930.8 | |
| 20260502184509 | 58 | 0.0 | 0.0 | 0.00 | 0.00 | 0.00 | 41 | 930.7 | |
| 20260502184009 | 58 | 0.0 | 0.0 | 0.00 | 0.00 | 0.00 | 41 | 930.6 | |
| 20260502183509 | 58 | 0.0 | 0.0 | 0.00 | 0.00 | 0.00 | 41 | 930.5 | |
| 20260502183009 | 59 | 0.0 | 0.0 | 0.00 | 0.00 | 0.00 | 40 | 930.5 | |
| 20260502182509 | 59 | 0.0 | 0.0 | 0.00 | 0.00 | 0.00 | 39 | 930.4 | |
| 20260502182009 | 60 | 0.0 | 0.0 | 0.00 | 0.00 | 0.00 | 39 | 930.3 | |
| 20260502181509 | 61 | 0.0 | 0.0 | 0.00 | 0.00 | 0.00 | 38 | 930.3 | |
| 20260502181009 | 61 | 0.0 | 0.0 | 0.00 | 0.00 | 0.00 | 37 | 930.1 | |
| 20260502180509 | 61 | 0.0 | 0.0 | 0.00 | 0.00 | 0.00 | 37 | 930.1 | |
| 20260502170509 | 74 | 0.0 | 0.0 | 0.00 | 0.00 | 0.00 | 28 | 929.2 | |
| 20260502164009 | 76 | 0.0 | 0.0 | 0.00 | 0.00 | 0.00 | 24 | 929.2 | |
| 20260502163509 | 76 | 0.0 | 0.0 | 0.00 | 0.00 | 0.00 | 23 | 929.2 | |
| 20260502163009 | 77 | 0.0 | 0.0 | 0.00 | 0.00 | 0.00 | 24 | 929.2 | |
| 20260502162509 | 78 | 0.0 | 0.0 | 0.00 | 0.00 | 0.00 | 21 | 929.2 | |
| 20260502162009 | 78 | 0.0 | 0.0 | 0.00 | 0.00 | 0.00 | 23 | 929.3 | |
| 20260502161509 | 78 | 0.0 | 0.0 | 0.00 | 0.00 | 0.00 | 23 | 929.3 | |
| 20260502161009 | 79 | 0.0 | 0.0 | 0.00 | 0.00 | 0.00 | 21 | 929.3 | |
| 20260502160509 | 79 | 0.0 | 0.0 | 0.00 | 0.00 | 0.00 | 23 | 929.4 | |
| 20260502152009 | 79 | 0.0 | 0.0 | 0.00 | 0.00 | 0.00 | 21 | 929.8 | |
| 20260502151509 | 79 | 0.0 | 0.0 | 0.00 | 0.00 | 0.00 | 20 | 929.8 | |
| 20260502151009 | 79 | 0.0 | 0.0 | 0.00 | 0.00 | 0.00 | 19 | 929.9 | |
| 20260502150509 | 80 | 0.0 | 0.0 | 0.00 | 0.00 | 0.00 | 19 | 929.9 | |
| 20260502130509 | 80 | 0.0 | 0.0 | 0.00 | 0.00 | 0.00 | 21 | 931.2 | |
| 20260502123509 | 81 | 0.0 | 0.0 | 0.00 | 0.00 | 0.00 | 20 | 931.5 | |
| 20260502123009 | 80 | 0.0 | 0.0 | 0.00 | 0.00 | 0.00 | 21 | 931.5 | |
| 20260502122509 | 80 | 0.0 | 0.0 | 0.00 | 0.00 | 0.00 | 19 | 931.6 | |
| 20260502122009 | 80 | 0.0 | 0.0 | 0.00 | 0.00 | 0.00 | 20 | 931.7 | |
| 20260502121509 | 79 | 0.0 | 0.0 | 0.00 | 0.00 | 0.00 | 22 | 931.7 | |
| 20260502121009 | 79 | 0.0 | 0.0 | 0.00 | 0.00 | 0.00 | 22 | 931.8 | |
| 20260502120509 | 79 | 0.0 | 0.0 | 0.00 | 0.00 | 0.00 | 21 | 931.9 | |
| 20260502115509 | 80 | 0.0 | 0.0 | 0.00 | 0.00 | 0.00 | 19 | 932.0 | |
| 20260502115009 | 80 | 0.0 | 0.0 | 0.00 | 0.00 | 0.00 | 21 | 932.0 | |
| 20260502114509 | 79 | 0.0 | 0.0 | 0.00 | 0.00 | 0.00 | 20 | 932.1 | |
| 20260502114009 | 78 | 0.0 | 0.0 | 0.00 | 0.00 | 0.00 | 21 | 932.2 | |
| 20260502113509 | 79 | 0.0 | 0.0 | 0.00 | 0.00 | 0.00 | 20 | 932.3 | |
| 20260502113009 | 79 | 0.0 | 0.0 | 0.00 | 0.00 | 0.00 | 21 | 932.4 | |
| 20260502112509 | 79 | 0.0 | 0.0 | 0.00 | 0.00 | 0.00 | 22 | 932.5 | |
| 20260502112009 | 78 | 0.0 | 0.0 | 0.00 | 0.00 | 0.00 | 20 | 932.6 | |
| 20260502111509 | 76 | 0.0 | 0.0 | 0.00 | 0.00 | 0.00 | 22 | 932.6 | |
| 20260502111009 | 78 | 0.0 | 0.0 | 0.00 | 0.00 | 0.00 | 20 | 932.7 | |
| 20260502110509 | 76 | 0.0 | 0.0 | 0.00 | 0.00 | 0.00 | 21 | 932.7 | |
| 20260502110009 | 75 | 0.0 | 0.0 | 0.00 | 0.00 | 0.00 | 21 | 932.8 | |
| 20260502105509 | 77 | 0.0 | 0.0 | 0.00 | 0.00 | 0.00 | 21 | 932.9 | |
| 20260502105009 | 77 | 0.0 | 0.0 | 0.00 | 0.00 | 0.00 | 21 | 933.0 | |
| 20260502104509 | 77 | 0.0 | 0.0 | 0.00 | 0.00 | 0.00 | 22 | 933.0 | |
| 20260502104009 | 76 | 0.0 | 0.0 | 0.00 | 0.00 | 0.00 | 22 | 933.1 | |
| 20260502103509 | 76 | 0.0 | 0.0 | 0.00 | 0.00 | 0.00 | 22 | 933.1 | |
| 20260502103009 | 76 | 0.0 | 0.0 | 0.00 | 0.00 | 0.00 | 23 | 933.2 | |
| 20260502102509 | 76 | 0.0 | 0.0 | 0.00 | 0.00 | 0.00 | 21 | 933.3 | |
| 20260502102009 | 76 | 0.0 | 0.0 | 0.00 | 0.00 | 0.00 | 23 | 933.4 | |
| 20260502101509 | 77 | 0.0 | 0.0 | 0.00 | 0.00 | 0.00 | 23 | 933.5 | |
| 20260502101009 | 78 | 0.0 | 0.0 | 0.00 | 0.00 | 0.00 | 21 | 933.5 | |
| 20260502100509 | 80 | 0.0 | 0.0 | 0.00 | 0.00 | 0.00 | 21 | 933.6 | |
| 20260502091509 | 88 | 0.0 | 0.0 | 0.00 | 0.00 | 0.00 | 17 | 934.1 | |
| 20260502091009 | 89 | 0.0 | 0.0 | 0.00 | 0.00 | 0.00 | 18 | 934.2 | |
| 20260502090509 | 90 | 0.0 | 0.0 | 0.00 | 0.00 | 0.00 | 16 | 934.2 | |
| 20260502071509 | 70 | 0.0 | 0.0 | 0.00 | 0.00 | 0.00 | 31 | 935.4 | |
| 20260502071009 | 69 | 0.0 | 0.0 | 0.00 | 0.00 | 0.00 | 31 | 935.4 | |
| 20260502070509 | 69 | 0.0 | 0.0 | 0.00 | 0.00 | 0.00 | 31 | 935.5 | |
| 20260502070009 | 69 | 0.0 | 0.0 | 0.00 | 0.00 | 0.00 | 33 | 935.5 | |
| 20260502065509 | 66 | 0.0 | 0.0 | 0.00 | 0.00 | 0.00 | 35 | 935.7 | |
| 20260502065009 | 62 | 0.0 | 0.0 | 0.00 | 0.00 | 0.00 | 37 | 935.8 | |
| 20260502064509 | 67 | 0.0 | 0.0 | 0.00 | 0.00 | 0.00 | 34 | 935.8 | |
| 20260502064009 | 66 | 0.0 | 0.0 | 0.00 | 0.00 | 0.00 | 34 | 935.8 | |
| 20260502063509 | 65 | 0.0 | 0.0 | 0.00 | 0.00 | 0.00 | 35 | 935.9 | |
| 20260502063009 | 67 | 0.0 | 0.0 | 0.00 | 0.00 | 0.00 | 33 | 935.9 | |
| 20260502062509 | 70 | 0.0 | 0.0 | 0.00 | 0.00 | 0.00 | 31 | 935.8 | |
| 20260502062009 | 75 | 0.0 | 0.0 | 0.00 | 0.00 | 0.00 | 29 | 935.8 | |
| 20260502061509 | 78 | 0.0 | 0.0 | 0.00 | 0.00 | 0.00 | 29 | 935.8 | |
| 20260502061009 | 69 | 0.0 | 0.0 | 0.00 | 0.00 | 0.00 | 39 | 936.0 | |
| 20260502060509 | 61 | 0.0 | 0.0 | 0.00 | 0.00 | 0.00 | 50 | 936.1 | |
| 20260502060009 | 46 | 0.0 | 0.0 | 0.00 | 0.00 | 0.00 | 70 | 936.5 | |
| 20260502055509 | 40 | 0.0 | 0.0 | 0.00 | 0.00 | 0.00 | 71 | 936.6 | |
| 20260502055009 | 39 | 0.0 | 0.0 | 0.00 | 0.00 | 0.00 | 71 | 936.7 | |
| 20260502054509 | 38 | 0.0 | 0.0 | 0.00 | 0.00 | 0.00 | 71 | 936.7 | |
| 20260502054009 | 38 | 0.0 | 0.0 | 0.00 | 0.00 | 0.00 | 71 | 936.7 | |
| 20260502053509 | 38 | 0.0 | 0.0 | 0.00 | 0.00 | 0.00 | 72 | 936.8 | |
| 20260502053009 | 38 | 0.0 | 0.0 | 0.00 | 0.00 | 0.00 | 72 | 936.8 | |
| 20260502052509 | 37 | 0.0 | 0.0 | 0.00 | 0.00 | 0.00 | 72 | 936.8 | |
| 20260502052009 | 37 | 0.0 | 0.0 | 0.00 | 0.00 | 0.00 | 71 | 936.9 | |
| 20260502051509 | 36 | 0.0 | 0.0 | 0.00 | 0.00 | 0.00 | 72 | 936.9 | |
| 20260502051009 | 36 | 0.0 | 0.0 | 0.00 | 0.00 | 0.00 | 71 | 936.9 | |
| 20260502050509 | 36 | 0.0 | 0.0 | 0.00 | 0.00 | 0.00 | 72 | 936.8 | |
| 20260502050009 | 36 | 0.0 | 0.0 | 0.00 | 0.00 | 0.00 | 72 | 936.9 | |
| 20260502045509 | 36 | 0.0 | 0.0 | 0.00 | 0.00 | 0.00 | 72 | 936.8 | |
| 20260502045009 | 36 | 0.0 | 0.0 | 0.00 | 0.00 | 0.00 | 72 | 936.8 | |
| 20260502044509 | 36 | 0.0 | 0.0 | 0.00 | 0.00 | 0.00 | 72 | 936.8 | |
| 20260502044009 | 35 | 0.0 | 0.0 | 0.00 | 0.00 | 0.00 | 72 | 936.8 | |
| 20260502043509 | 35 | 0.0 | 0.0 | 0.00 | 0.00 | 0.00 | 72 | 936.8 | |
| 20260502043009 | 36 | 0.0 | 0.0 | 0.00 | 0.00 | 0.00 | 72 | 936.8 | |
| 20260502042509 | 36 | 0.0 | 0.0 | 0.00 | 0.00 | 0.00 | 72 | 936.8 | |
| 20260502042009 | 35 | 0.0 | 0.0 | 0.00 | 0.00 | 0.00 | 72 | 936.8 | |
| 20260502041509 | 36 | 0.0 | 0.0 | 0.00 | 0.00 | 0.00 | 72 | 936.8 | |
| 20260502041009 | 36 | 0.0 | 0.0 | 0.00 | 0.00 | 0.00 | 73 | 936.8 | |
| 20260502040509 | 36 | 0.0 | 0.0 | 0.00 | 0.00 | 0.00 | 72 | 936.8 | |
| 20260502040009 | 36 | 0.0 | 0.0 | 0.00 | 0.00 | 0.00 | 73 | 936.7 | |
| 20260502035509 | 35 | 0.0 | 0.0 | 0.00 | 0.00 | 0.00 | 72 | 936.7 | |
| 20260502035009 | 34 | 0.0 | 0.0 | 0.00 | 0.00 | 0.00 | 72 | 936.7 | |
| 20260502034509 | 35 | 0.0 | 0.0 | 0.00 | 0.00 | 0.00 | 71 | 936.6 | |
| 20260502034009 | 35 | 0.0 | 0.0 | 0.00 | 0.00 | 0.00 | 72 | 936.6 | |
| 20260502033509 | 35 | 0.0 | 0.0 | 0.00 | 0.00 | 0.00 | 71 | 936.6 | |
| 20260502033009 | 36 | 0.0 | 0.0 | 0.00 | 0.00 | 0.00 | 71 | 936.5 | |
| 20260502032509 | 36 | 0.0 | 0.0 | 0.00 | 0.00 | 0.00 | 71 | 936.5 | |
| 20260502032009 | 36 | 0.0 | 0.0 | 0.00 | 0.00 | 0.00 | 71 | 936.5 | |
| 20260502031509 | 36 | 0.0 | 0.0 | 0.00 | 0.00 | 0.00 | 71 | 936.5 | |
| 20260502031009 | 36 | 0.0 | 0.0 | 0.00 | 0.00 | 0.00 | 71 | 936.5 | |
| 20260502030509 | 37 | 0.0 | 0.0 | 0.00 | 0.00 | 0.00 | 71 | 936.6 | |
| 20260502030009 | 37 | 0.0 | 0.0 | 0.00 | 0.00 | 0.00 | 71 | 936.6 | |
| 20260502025509 | 36 | 0.0 | 0.0 | 0.00 | 0.00 | 0.00 | 70 | 936.6 | |
| 20260502025009 | 37 | 0.0 | 0.0 | 0.00 | 0.00 | 0.00 | 70 | 936.7 | |
| 20260502024509 | 36 | 0.0 | 0.0 | 0.00 | 0.00 | 0.00 | 70 | 936.7 | |
| 20260502024009 | 36 | 0.0 | 0.0 | 0.00 | 0.00 | 0.00 | 70 | 936.7 | |
| 20260502023509 | 37 | 0.0 | 0.0 | 0.00 | 0.00 | 0.00 | 70 | 936.7 | |
| 20260502023009 | 37 | 0.0 | 0.0 | 0.00 | 0.00 | 0.00 | 70 | 936.7 | |
| 20260502022509 | 37 | 0.0 | 0.0 | 0.00 | 0.00 | 0.00 | 70 | 936.7 | |
| 20260502022009 | 37 | 0.0 | 0.0 | 0.00 | 0.00 | 0.00 | 69 | 936.7 | |
| 20260502021509 | 37 | 0.0 | 0.0 | 0.00 | 0.00 | 0.00 | 69 | 936.7 | |
| 20260502021009 | 37 | 0.0 | 0.0 | 0.00 | 0.00 | 0.00 | 69 | 936.7 | |
| 20260502020509 | 37 | 0.0 | 0.0 | 0.00 | 0.00 | 0.00 | 69 | 936.7 | |
| 20260502020009 | 37 | 0.0 | 0.0 | 0.00 | 0.00 | 0.00 | 69 | 936.6 | |
| 20260502015509 | 38 | 0.0 | 0.0 | 0.00 | 0.00 | 0.00 | 69 | 936.7 | |
| 20260502015009 | 37 | 0.0 | 0.0 | 0.00 | 0.00 | 0.00 | 69 | 936.7 | |
| 20260502014509 | 37 | 0.0 | 0.0 | 0.00 | 0.00 | 0.00 | 68 | 936.7 | |
| 20260502014009 | 37 | 0.0 | 0.0 | 0.00 | 0.00 | 0.00 | 68 | 936.7 | |
| 20260502013509 | 38 | 0.0 | 0.0 | 0.00 | 0.00 | 0.00 | 68 | 936.6 | |
| 20260502013009 | 38 | 0.0 | 0.0 | 0.00 | 0.00 | 0.00 | 68 | 936.6 | |
| 20260502012509 | 38 | 0.0 | 0.0 | 0.00 | 0.00 | 0.00 | 68 | 936.6 | |
| 20260502012009 | 38 | 0.0 | 0.0 | 0.00 | 0.00 | 0.00 | 68 | 936.7 | |
| 20260502011509 | 38 | 0.0 | 0.0 | 0.00 | 0.00 | 0.00 | 68 | 936.8 | |
| 20260502011009 | 37 | 0.0 | 0.0 | 0.00 | 0.00 | 0.00 | 68 | 936.8 | |
| 20260502010509 | 37 | 0.0 | 0.0 | 0.00 | 0.00 | 0.00 | 66 | 936.8 | |
| 20260502010009 | 39 | 0.0 | 0.0 | 0.00 | 0.00 | 0.00 | 67 | 936.7 | |
| 20260502005509 | 39 | 0.0 | 0.0 | 0.00 | 0.00 | 0.00 | 68 | 936.8 | |
| 20260502005009 | 38 | 0.0 | 0.0 | 0.00 | 0.00 | 0.00 | 67 | 936.7 | |
| 20260502004509 | 39 | 0.0 | 0.0 | 0.00 | 0.00 | 0.00 | 67 | 936.8 | |
| 20260502004009 | 39 | 0.0 | 0.0 | 0.00 | 0.00 | 0.00 | 67 | 936.8 | |
| 20260502003509 | 39 | 0.0 | 0.0 | 0.00 | 0.00 | 0.00 | 67 | 936.8 | |
| 20260502003009 | 38 | 0.0 | 0.0 | 0.00 | 0.00 | 0.00 | 66 | 936.9 | |
| 20260502002509 | 39 | 0.0 | 0.0 | 0.00 | 0.00 | 0.00 | 65 | 936.9 | |
| 20260502002009 | 39 | 0.0 | 0.0 | 0.00 | 0.00 | 0.00 | 66 | 937.0 | |
| 20260502001509 | 40 | 0.0 | 0.0 | 0.00 | 0.00 | 0.00 | 65 | 937.0 | |
| 20260502001009 | 39 | 0.0 | 0.0 | 0.00 | 0.00 | 0.00 | 66 | 937.0 | |
| 20260502000509 | 39 | 0.0 | 0.0 | 0.00 | 0.00 | 0.00 | 65 | 937.1 | |
| 20260502000009 | 39 | 0.0 | 0.0 | 0.00 | 0.00 | 0.00 | 65 | 937.1 | |
| 20260501235509 | 39 | 0.0 | 0.0 | 0.00 | 0.00 | 0.00 | 64 | 937.1 | |
| 20260501235009 | 40 | 0.0 | 0.0 | 0.00 | 0.00 | 0.00 | 64 | 937.1 | |
| 20260501234509 | 40 | 0.0 | 0.0 | 0.00 | 0.00 | 0.00 | 64 | 937.0 | |
| 20260501234009 | 40 | 0.0 | 0.0 | 0.00 | 0.00 | 0.00 | 64 | 937.1 | |
| 20260501233509 | 40 | 0.0 | 0.0 | 0.00 | 0.00 | 0.00 | 64 | 937.1 | |
| 20260501233009 | 40 | 0.0 | 0.0 | 0.00 | 0.00 | 0.00 | 63 | 937.1 | |
| 20260501232509 | 40 | 0.0 | 0.0 | 0.00 | 0.00 | 0.00 | 63 | 937.2 |